Tucson, AZ

8:30 AM MST on February 13, 2016 (GMT -0700)
Tucson International

Weather History for KTUS - October, 2014

Change the Weather History Date:

Friday, October 24, 2014

  Actual Average Record
Temperature  
Mean Temperature 78 °F 68 °F  
Max Temperature 94 °F 82 °F 96 °F (1959)
Min Temperature 62 °F 54 °F 33 °F (1935)
Degree Days  
Heating Degree Days 0 1  
Month to date heating degree days 0 10  
Since 1 July heating degree days 0 10  
Cooling Degree Days 13 4  
Month to date cooling degree days 266 186  
Year to date cooling degree days 3499 3093  
Growing Degree Days 28 (Base 50)    
Moisture  
Dew Point 46 °F    
Average Humidity 37    
Maximum Humidity 56    
Minimum Humidity 17    
Precipitation  
Precipitation 0.00 in 0.02 in 0.50 in (1925)
Month to date precipitation 1.33 0.73  
Year to date precipitation 8.02 9.93  
Sea Level Pressure  
Sea Level Pressure 29.98 in    
Wind  
Wind Speed 6 mph (SSE)    
Max Wind Speed 14 mph    
Max Gust Speed 18 mph    
Visibility 10 miles    
Events      
T = Trace of Precipitation, MM = Missing Value Source: NWS Daily Summary

Daily Weather History Graph

Daily Weather History Graph

Search for Another Location

Airport or City:

Trip Planner

Search our weather history database for the weather conditions in past years. The results will help you decide how hot, cold, wet, or windy it might be!

Date:

Astronomy

Oct. 24, 2014 Rise Set
Actual Time 6:34 AM MST 5:41 PM MST
Civil Twilight 6:09 AM MST 6:06 PM MST
Nautical Twilight 5:40 AM MST 6:34 PM MST
Astronomical Twilight 5:12 AM MST 7:03 PM MST
Moon 7:14 AM MST (10/24) 6:26 PM MST (10/24)
Length of Visible Light 11h 57m
Length of Day
11h 07m
New Moon, 1% of the Moon is Illuminated
Oct 24
New Moon
Oct 30
First Quarter
Nov 6
Full
Nov 14
Last Quarter
Nov 22
New

Hourly Weather History & Observations

Time (MST) Temp. Dew Point Humidity Pressure Visibility Wind Dir Wind Speed Gust Speed Precip Events Conditions
12:53 AM 66.0 °F 46.0 °F 48% 29.98 in 10.0 mi SSE 9.2 mph - N/A   Clear
1:53 AM 64.9 °F 46.0 °F 50% 29.98 in 10.0 mi SSE 9.2 mph - N/A   Clear
2:53 AM 64.0 °F 46.9 °F 54% 29.97 in 10.0 mi SSE 10.4 mph - N/A   Clear
3:53 AM 63.0 °F 45.0 °F 52% 29.97 in 10.0 mi SSE 9.2 mph - N/A   Clear
4:53 AM 63.0 °F 46.9 °F 56% 29.98 in 10.0 mi SE 11.5 mph - N/A   Clear
5:53 AM 64.0 °F 46.0 °F 52% 30.00 in 10.0 mi SE 10.4 mph - N/A   Clear
6:53 AM 62.1 °F 46.9 °F 58% 30.01 in 10.0 mi SE 5.8 mph - N/A   Clear
7:53 AM 66.9 °F 46.9 °F 49% 30.04 in 10.0 mi SSE 6.9 mph - N/A   Clear
8:53 AM 73.0 °F 48.0 °F 41% 30.05 in 10.0 mi SSE 6.9 mph - N/A   Clear
9:53 AM 79.0 °F 46.9 °F 32% 30.04 in 10.0 mi SSE 5.8 mph - N/A   Clear
10:53 AM 84.0 °F 46.0 °F 26% 30.03 in 10.0 mi Variable 6.9 mph - N/A   Clear
11:53 AM 88.0 °F 46.0 °F 23% 30.00 in 10.0 mi Calm Calm - N/A   Clear
12:53 PM 90.0 °F 43.0 °F 19% 29.96 in 10.0 mi Calm Calm - N/A   Clear
1:53 PM 91.9 °F 41.0 °F 17% 29.93 in 10.0 mi Calm Calm - N/A   Clear
2:53 PM 93.0 °F 43.0 °F 18% 29.92 in 10.0 mi NW 9.2 mph - N/A   Clear
3:53 PM 91.9 °F 43.0 °F 18% 29.92 in 10.0 mi NW 3.5 mph - N/A   Clear
4:53 PM 91.0 °F 43.0 °F 19% 29.91 in 10.0 mi Calm Calm - N/A   Clear
5:53 PM 84.9 °F 46.9 °F 27% 29.93 in 10.0 mi West 4.6 mph - N/A   Clear
6:53 PM 82.9 °F 46.0 °F 27% 29.96 in 10.0 mi NW 3.5 mph - N/A   Clear
7:53 PM 79.0 °F 46.9 °F 32% 29.97 in 10.0 mi West 3.5 mph - N/A   Clear
8:53 PM 77.0 °F 46.9 °F 34% 29.99 in 10.0 mi SSW 4.6 mph - N/A   Clear
9:53 PM 75.0 °F 46.9 °F 37% 29.99 in 10.0 mi South 5.8 mph - N/A   Clear
10:53 PM 72.0 °F 46.0 °F 40% 29.99 in 10.0 mi SSE 4.6 mph - N/A   Clear
11:53 PM 71.1 °F 46.0 °F 41% 29.99 in 10.0 mi SE 9.2 mph - N/A   Clear